[[{"header":{"parameterUnit":"m.s-1","parameterCategory":1,"la1":30.2991,"la2":30.254,"lo1":-89.0895,"lo2":-89.0444,"dy":0.0017,"dx":0.0017,"nx":28,"ny":28,"refTime":"2023-10-12T03:00:00:Z","depth":0,"parameterNumber":2,"parameterNumberName":"U-component_of_WINDS"},"data":[0,0,0,0,0,0,0,0,0,0,0,0,0,0,0,0,0,0,0,0,0,0,0,0,0,0,0,0,0,0,0,0,0,0,0,0,0,0,0,0,0,0,0,0,0,0,0,0,0,0,0,0,0,0,0,0,0,0,0.7492,0.7493,0,0.7595,0.7596,0.7598,0.7638,0.7638,0.7638,0.7637,0.7748,0.7751,0.7754,0,0,0,0,0,0,0,0,0,0,0,0,0,0.7335,0.7338,0.7492,0.7493,0.7495,0.7595,0.7597,0.7598,0.7638,0.7638,0.7638,0.7637,0.7747,0.775,0.7754,0,0,0,0,0,0,0,0,0,0,0,0,0,0.7418,0.7339,0.7492,0.7527,0.7531,0.7595,0.7597,0.7598,0.7638,0.7638,0.7638,0.7637,0.7745,0.775,0.7755,0.7793,0,0,0.777,0.7772,0,0,0,0,0,0,0,0,0.7413,0.7423,0.752,0.7524,0.7529,0.7603,0.7582,0.7664,0.7639,0.7598,0.7637,0.7637,0.77,0.7709,0.7729,0.7798,0.7803,0.777,0.7773,0.7775,0.7776,0,0,0,0,0,0,0,0.7407,0.7419,0.7533,0.7522,0.7527,0.7539,0.755,0.7598,0.765,0.7601,0.7604,0.7616,0.7703,0.7725,0.7732,0.7805,0.777,0.7774,0.7777,0.7779,0.7912,0.7913,0,0,0,0,0,0,0.7395,0.7414,0.753,0.7536,0.7469,0.7542,0.7555,0.758,0.765,0.766,0.7616,0.7617,0.7717,0.7727,0.7736,0.7787,0.7775,0.7779,0.7782,0.7912,0.7912,0.7913,0,0,0,0,0,0,0.7391,0.7405,0.7526,0.7476,0.7492,0.7545,0.7574,0.7582,0.7604,0.7661,0.7671,0.7628,0.7717,0.7729,0.7779,0.7791,0.7782,0.7786,0.7911,0.7912,0.7913,0.7887,0,0,0,0,0,0,0.7387,0.7403,0.7417,0.7476,0.7495,0.7564,0.7574,0.7585,0.7612,0.7614,0.7675,0.7685,0.7717,0.7771,0.7783,0.7797,0.779,0.791,0.7911,0.7912,0.7887,0.7887,0.7887,0,0,0,0,0,0.7381,0.7406,0.7417,0.7431,0.7513,0.7565,0.7576,0.7611,0.7612,0.7628,0.7665,0.7683,0.7788,0.7776,0.779,0.7806,0.7909,0.7911,0.7912,0.7887,0.7887,0.7887,0,0,0,0,0,0,0.7348,0.7414,0.7428,0.7472,0.7512,0.7572,0.7592,0.761,0.7652,0.7653,0.7697,0.771,0.7756,0.7786,0.7772,0.7847,0.785,0.7854,0.7826,0.7826,0.7826,0.7818,0.7794,0,0,0,0,0,0.7346,0.7381,0.7438,0.7472,0.7491,0.7538,0.7562,0.7586,0.763,0.7648,0.7688,0.7732,0.7775,0.7802,0.7845,0.7891,0.7906,0.7909,0.7909,0.7909,0.7912,0.7941,0.7943,0.7918,0.7918,0.7918,0,0,0.7342,0.7383,0.7402,0.7466,0.75,0.7538,0.7552,0.7591,0.762,0.7654,0.7703,0.7734,0.7786,0.7835,0.7858,0.7861,0.7923,0.7911,0.791,0.7914,0.7943,0.7945,0.7947,0.7919,0.7919,0.7919,0,0,0.7354,0.7388,0.742,0.7454,0.7505,0.7536,0.7544,0.7601,0.7623,0.7672,0.7699,0.7735,0.7808,0.7844,0.7872,0.7899,0.7918,0.7912,0.7912,0.7939,0.7941,0.7943,0.7954,0.7957,0.7915,0.7915,0.7915,0,0.7343,0.7399,0.7435,0.7472,0.7501,0.7533,0.7567,0.7599,0.7662,0.7681,0.7684,0.7776,0.7813,0.7871,0.7878,0.7899,0.7911,0.7905,0.7938,0.794,0.7942,0.7953,0.7957,0.7914,0.7914,0.7914,0.7914,0,0.7383,0.7422,0.7443,0.7501,0.7532,0.7568,0.7611,0.7638,0.766,0.7691,0.7742,0.7788,0.7841,0.7857,0.7879,0.7919,0.7919,0.7929,0.7933,0.7943,0.7954,0.7959,0.7913,0.7913,0.7913,0.7913,0,0,0.7377,0.7456,0.7463,0.749,0.755,0.7581,0.762,0.767,0.7693,0.7736,0.7771,0.7832,0.7842,0.7873,0.79,0.7924,0.7944,0.7931,0.7933,0.7933,0.7993,0.7985,0.7989,0.7957,0.7958,0.7959,0.7989,0,0.7397,0.7465,0.7499,0.7553,0.7591,0.7623,0.7656,0.7698,0.7728,0.7766,0.7801,0.7844,0.7853,0.7873,0.7898,0.7936,0.7957,0.7935,0.7991,0.7993,0.7977,0.7995,0.7986,0.8012,0.7993,0.7994,0.7994,0,0.743,0.7471,0.7528,0.7585,0.7602,0.7631,0.7681,0.7716,0.7764,0.7785,0.7821,0.7847,0.7891,0.7892,0.7954,0.7938,0.7963,0.7986,0.7988,0.7995,0.7994,0.8002,0.8021,0.8025,0.8001,0.8001,0.8,0,0.742,0.749,0.7534,0.7557,0.7623,0.7644,0.7673,0.772,0.7749,0.7794,0.7813,0.7862,0.789,0.7928,0.7968,0.7964,0.8027,0.803,0.8047,0.8046,0.8059,0.8057,0.8082,0.8074,0.8074,0.8074,0.8074,0,0.7439,0.7473,0.7531,0.7557,0.7597,0.7638,0.7677,0.7709,0.7751,0.7786,0.7818,0.785,0.79,0.794,0.7972,0.8019,0.8031,0.8051,0.8059,0.8048,0.8046,0.8066,0.8065,0.8075,0.8075,0.8075,0.8075,0,0.7435,0.7474,0.7524,0.7583,0.7599,0.7626,0.7678,0.7706,0.7739,0.7783,0.7796,0.7848,0.7897,0.794,0.8005,0.8026,0.8075,0.8085,0.8058,0.8062,0.8076,0.8075,0.8115,0.8123,0.8109,0.8109,0.8109,0,0.7444,0.7471,0.7533,0.7558,0.7586,0.7627,0.7656,0.7698,0.7727,0.7785,0.7807,0.7858,0.79,0.7977,0.8021,0.8072,0.8083,0.8094,0.8091,0.808,0.8084,0.8082,0.8086,0.8094,0.8094,0.8093,0.8093,0,0.7458,0.7476,0.7516,0.7564,0.7598,0.7638,0.7679,0.7698,0.7748,0.778,0.7829,0.7862,0.7928,0.7979,0.8034,0.8066,0.8089,0.8094,0.8101,0.809,0.8074,0.8083,0.8058,0.8093,0.8093,0.8093,0.8093,0.8093,0.7461,0.7487,0.7535,0.7579,0.7614,0.7652,0.7682,0.7718,0.776,0.7815,0.7838,0.7889,0.7939,0.8015,0.8047,0.8089,0.8093,0.8103,0.8105,0.8107,0.8105,0.8067,0.8099,0.8099,0.8099,0.8099,0.81,0,0.7477,0.7509,0.755,0.7606,0.7641,0.7658,0.7705,0.7734,0.7777,0.7821,0.7862,0.792,0.7969,0.8018,0.8071,0.8095,0.8107,0.8107,0.8106,0.8113,0.8098,0.8087,0.8097,0.8097,0.8097,0.8097,0.8097,0.8097,0.7489,0.7534,0.7558,0.7622,0.7655,0.7703,0.7729,0.7765,0.78,0.7862,0.7903,0.7934,0.7981,0.8037,0.8084,0.8098,0.8116,0.8114,0.813,0.8115,0.8114,0.8114,0.8104,0.8117,0.8117,0.8142,0.8142,0.8142]},{"header":{"parameterUnit":"m.s-1","parameterCategory":1,"la1":30.2991,"la2":30.254,"lo1":-89.0895,"lo2":-89.0444,"dy":0.0017,"dx":0.0017,"nx":28,"ny":28,"refTime":"2023-10-12T03:00:00:Z","depth":0,"parameterNumber":3,"parameterNumberName":"V-component_of_WINDS"},"data":[0,0,0,0,0,0,0,0,0,0,0,0,0,0,0,0,0,0,0,0,0,0,0,0,0,0,0,0,0,0,0,0,0,0,0,0,0,0,0,0,0,0,0,0,0,0,0,0,0,0,0,0,0,0,0,0,0,0,-0.0767,-0.0768,0,-0.0835,-0.0836,-0.0837,-0.0904,-0.0905,-0.0906,-0.0907,-0.0976,-0.0977,-0.0978,0,0,0,0,0,0,0,0,0,0,0,0,0,-0.0696,-0.0697,-0.0767,-0.0768,-0.0769,-0.0835,-0.0836,-0.0837,-0.0904,-0.0905,-0.0906,-0.0907,-0.0976,-0.0977,-0.0978,0,0,0,0,0,0,0,0,0,0,0,0,0,-0.0742,-0.0698,-0.0767,-0.081,-0.0815,-0.0835,-0.0836,-0.0837,-0.0904,-0.0905,-0.0906,-0.0908,-0.0975,-0.0977,-0.0978,-0.0961,0,0,-0.0983,-0.0984,0,0,0,0,0,0,0,0,-0.0739,-0.0744,-0.0803,-0.0807,-0.0812,-0.0863,-0.0837,-0.0879,-0.0903,-0.087,-0.0907,-0.0908,-0.0937,-0.0942,-0.0952,-0.0965,-0.0968,-0.0983,-0.0984,-0.0985,-0.0985,0,0,0,0,0,0,0,-0.0736,-0.0742,-0.0794,-0.0804,-0.0809,-0.0827,-0.0835,-0.0845,-0.0895,-0.0873,-0.0878,-0.0885,-0.094,-0.095,-0.0954,-0.0969,-0.0983,-0.0985,-0.0986,-0.0986,-0.0975,-0.0974,0,0,0,0,0,0,-0.0726,-0.0739,-0.0792,-0.0796,-0.0778,-0.0827,-0.0836,-0.0845,-0.0895,-0.0904,-0.0884,-0.0888,-0.0947,-0.0952,-0.0957,-0.0943,-0.0985,-0.0986,-0.0987,-0.0976,-0.0975,-0.0974,0,0,0,0,0,0,-0.0724,-0.073,-0.0789,-0.0769,-0.0778,-0.0827,-0.0837,-0.0846,-0.0856,-0.0904,-0.0913,-0.0885,-0.0948,-0.0955,-0.0961,-0.0947,-0.0987,-0.0988,-0.0978,-0.0976,-0.0974,-0.0914,0,0,0,0,0,0,-0.0722,-0.0729,-0.0723,-0.0768,-0.0778,-0.0791,-0.0836,-0.0846,-0.0859,-0.0865,-0.0907,-0.0916,-0.095,-0.0958,-0.0962,-0.0949,-0.099,-0.0979,-0.0977,-0.0975,-0.0918,-0.091,-0.0904,0,0,0,0,0,-0.0719,-0.0702,-0.0722,-0.0728,-0.0771,-0.079,-0.0796,-0.0836,-0.0857,-0.0852,-0.0883,-0.0914,-0.0947,-0.0958,-0.0963,-0.0951,-0.098,-0.0978,-0.0975,-0.0921,-0.0912,-0.0905,0,0,0,0,0,0,-0.0653,-0.0709,-0.0731,-0.0728,-0.0754,-0.0801,-0.0796,-0.0825,-0.0845,-0.085,-0.0898,-0.0907,-0.0909,-0.093,-0.0941,-0.0939,-0.0968,-0.0967,-0.0925,-0.0917,-0.0911,-0.0907,-0.0991,0,0,0,0,0,-0.0637,-0.0648,-0.0696,-0.0689,-0.0701,-0.0746,-0.0755,-0.0784,-0.0813,-0.0824,-0.0855,-0.0882,-0.0899,-0.0909,-0.0927,-0.0921,-0.0933,-0.0915,-0.0908,-0.0902,-0.0901,-0.0903,-0.0897,-0.0965,-0.0965,-0.0965,0,0,-0.0606,-0.0638,-0.0642,-0.0676,-0.07,-0.0711,-0.0754,-0.0763,-0.0772,-0.0825,-0.0834,-0.0858,-0.0891,-0.0892,-0.0894,-0.091,-0.0885,-0.0899,-0.0894,-0.0896,-0.09,-0.0893,-0.0887,-0.0963,-0.0963,-0.0963,0,0,-0.0556,-0.058,-0.0579,-0.0602,-0.0637,-0.0667,-0.0667,-0.071,-0.0729,-0.0738,-0.078,-0.0791,-0.0818,-0.0841,-0.0856,-0.0818,-0.0849,-0.0822,-0.0788,-0.0789,-0.0784,-0.078,-0.0769,-0.0764,-0.082,-0.082,-0.082,0,-0.0514,-0.0531,-0.0574,-0.0581,-0.0597,-0.0646,-0.0645,-0.0666,-0.0704,-0.0714,-0.0732,-0.0769,-0.0794,-0.0803,-0.0794,-0.0804,-0.0807,-0.0818,-0.0781,-0.0777,-0.0774,-0.0764,-0.076,-0.0817,-0.0817,-0.0817,-0.0818,0,-0.0479,-0.049,-0.0485,-0.0523,-0.0537,-0.054,-0.0584,-0.0594,-0.0622,-0.0651,-0.0661,-0.0694,-0.0721,-0.0725,-0.0751,-0.0739,-0.0748,-0.0772,-0.0803,-0.0764,-0.0756,-0.0752,-0.0812,-0.0813,-0.0814,-0.0815,0,0,-0.0388,-0.0451,-0.0449,-0.0468,-0.0511,-0.0522,-0.0528,-0.0555,-0.0564,-0.0589,-0.0598,-0.0621,-0.0645,-0.0662,-0.0692,-0.0693,-0.0664,-0.0718,-0.072,-0.0709,-0.0656,-0.0639,-0.0634,-0.0684,-0.0684,-0.0683,-0.0655,0,-0.0348,-0.0363,-0.0402,-0.0405,-0.0418,-0.0466,-0.0472,-0.05,-0.0528,-0.0544,-0.0574,-0.0591,-0.062,-0.0631,-0.0634,-0.0667,-0.0655,-0.0669,-0.0695,-0.0695,-0.0687,-0.0629,-0.0611,-0.0582,-0.0651,-0.0651,-0.065,0,-0.0302,-0.0327,-0.0331,-0.0377,-0.0384,-0.0388,-0.0418,-0.0432,-0.0466,-0.0486,-0.0506,-0.054,-0.0551,-0.0579,-0.0597,-0.0606,-0.0619,-0.0636,-0.0636,-0.0642,-0.0672,-0.0636,-0.0573,-0.057,-0.0645,-0.0646,-0.0646,0,-0.024,-0.0273,-0.0282,-0.0296,-0.0348,-0.0351,-0.0373,-0.0408,-0.0423,-0.0449,-0.046,-0.0486,-0.0501,-0.0521,-0.0562,-0.0578,-0.0577,-0.0606,-0.0596,-0.0595,-0.0595,-0.0595,-0.0536,-0.0599,-0.0599,-0.0599,-0.0599,0,-0.0192,-0.0194,-0.0255,-0.026,-0.0264,-0.031,-0.0313,-0.034,-0.0371,-0.0383,-0.0425,-0.0436,-0.0488,-0.0505,-0.0537,-0.0549,-0.0554,-0.0573,-0.0582,-0.057,-0.0569,-0.0581,-0.0585,-0.0598,-0.0598,-0.0598,-0.0598,0,-0.0124,-0.0164,-0.0177,-0.0226,-0.0239,-0.024,-0.0283,-0.0291,-0.0321,-0.0337,-0.0343,-0.0391,-0.0414,-0.0456,-0.049,-0.0512,-0.0519,-0.0532,-0.0507,-0.0513,-0.0501,-0.0503,-0.045,-0.0447,-0.0509,-0.0508,-0.0508,0,-0.0092,-0.0095,-0.0145,-0.0156,-0.0177,-0.0195,-0.0211,-0.0256,-0.0271,-0.0311,-0.0315,-0.0341,-0.0365,-0.0399,-0.0438,-0.0466,-0.0482,-0.0462,-0.0487,-0.0476,-0.0486,-0.0486,-0.0488,-0.0457,-0.0456,-0.0455,-0.0454,0,-0.0032,-0.0053,-0.0073,-0.0102,-0.012,-0.0145,-0.0171,-0.0179,-0.0231,-0.0246,-0.027,-0.0288,-0.0325,-0.0352,-0.0385,-0.0409,-0.0442,-0.0446,-0.0446,-0.0436,-0.0422,-0.0433,-0.0495,-0.0448,-0.0448,-0.0449,-0.0449,-0.0449,0.0017,0.0011,-0.0026,-0.0049,-0.0074,-0.0099,-0.011,-0.0142,-0.0163,-0.0197,-0.0222,-0.0245,-0.0282,-0.033,-0.0353,-0.0373,-0.0388,-0.0386,-0.0386,-0.0386,-0.0383,-0.0417,-0.0379,-0.0379,-0.0379,-0.0379,-0.038,0,0.0072,0.0045,0.0025,-0.0012,-0.0031,-0.0059,-0.0091,-0.0105,-0.0125,-0.0156,-0.0179,-0.0208,-0.0235,-0.0276,-0.0307,-0.0315,-0.0331,-0.0322,-0.0323,-0.0329,-0.0366,-0.0365,-0.0309,-0.0309,-0.0309,-0.0309,-0.0309,-0.0309,0.0098,0.0086,0.0061,0.0034,0.0008,-0.0016,-0.0032,-0.0056,-0.0081,-0.0112,-0.0135,-0.0162,-0.0198,-0.0232,-0.0259,-0.027,-0.0281,-0.0268,-0.0284,-0.0319,-0.0325,-0.0332,-0.0331,-0.0269,-0.0269,-0.0246,-0.0246,-0.0245]}]]